Stations météo

réclame
Mon MeteoGroup
Goteborg, Suède (2513): Température de l'air & dewpoint: 11.07.2018 13:00:00 - 17.07.2018 13:00:00 (CEST)Goteborg, Suède (2513): Vitesse du vent & gusts: 11.07.2018 13:00:00 - 17.07.2018 13:00:00 (CEST)Goteborg, Suède (2513): Direction du vent: 11.07.2018 13:00:00 - 17.07.2018 13:00:00 (CEST)Goteborg, Suède (2513): reduced air pressure: 11.07.2018 13:00:00 - 17.07.2018 13:00:00 (CEST)Goteborg, Suède (2513): visibility: 11.07.2018 13:00:00 - 17.07.2018 13:00:00 (CEST)Goteborg, Suède (2513): Quantités de précipitations: 11.07.2018 13:00:00 - 17.07.2018 13:00:00 (CEST)
Date & Time tt [°C] td [°C] ff [km/h] ff [knt] fx [km/h] fx [knt] dd ppp [hPa] vv [km] rr [mm]
17.07.2018 13:00:00 30,9 10,8 10 6 28 15 SE 1012,4 29 0,0
17.07.2018 12:00:00 30,3 11,3 11 6 26 14 ESE 1012,7 40 0,0
17.07.2018 11:00:00 28,4 11,5 12 7 24 13 ESE 1012,9 35 0,0
17.07.2018 10:00:00 26,0 13,1 8 4 17 9 E 1013,0 39 0,0
17.07.2018 09:00:00 23,0 15,3 4 2 9 5 NE 1013,1 35 0,0
17.07.2018 08:00:00 20,7 14,8 5 3 12 7 ENE 1013,1 41 0,0
17.07.2018 07:00:00 19,5 15,6 6 4 15 8 NE 1013,1 42 0,0
17.07.2018 06:00:00 18,4 15,5 2 1 9 5 NNE 1013,1 35 0,0
17.07.2018 05:00:00 18,2 15,1 4 2 11 6 N 1013,4 38 0,0
17.07.2018 04:00:00 17,8 16,0 3 2 8 4 NE 1013,4 38 0,0
17.07.2018 03:00:00 18,3 16,6 3 2 6 3 NE 1013,6 34 0,0
17.07.2018 02:00:00 19,4 16,6 3 1 8 5 NNE 1013,9 35 0,0
17.07.2018 01:00:00 19,7 16,9 3 2 10 5 NNE 1014,0 43 0,0
17.07.2018 00:00:00 19,5 17,1 4 2 13 7 NNE 1014,1 40 0,0
16.07.2018 23:00:00 20,0 17,4 0 0 30 16 N 1014,3 8 4,6
16.07.2018 22:00:00 22,0 17,2 15 8 32 17 ESE 1015,4 1,1 1,9
16.07.2018 21:00:00 26,5 14,3 5 3 20 11 S 1014,0 49 0,0
16.07.2018 20:00:00 27,3 13,6 11 6 23 12 NW 1013,5 42 0,0
16.07.2018 19:00:00 28,3 13,8 13 7 24 13 NW 1013,4 37 0,0
16.07.2018 18:00:00 28,6 13,3 14 8 26 14 NW 1013,6 38 0,0
16.07.2018 17:00:00 28,6 12,9 16 9 27 14 WNW 1013,9 37 0,0
16.07.2018 16:00:00 27,9 13,8 18 10 29 16 WNW 1014,4 33 0,0
16.07.2018 15:00:00 27,7 14,0 17 9 29 15 W 1014,9 33 0,0
16.07.2018 14:00:00 27,7 14,0 15 8 25 13 W 1015,4 26 0,0
16.07.2018 13:00:00 27,4 12,2 7 4 18 10 NNW 1015,8 41 0,0
16.07.2018 12:00:00 26,2 13,0 5 3 14 8 NNW 1016,2 36 0,0
16.07.2018 11:00:00 23,9 13,7 6 3 17 9 N 1016,5 35 0,0
16.07.2018 10:00:00 22,5 16,3 5 3 12 7 NW 1016,8 22 0,0
16.07.2018 09:00:00 20,7 15,5 2 1 8 4 NNW 1017,2 19 0,0
16.07.2018 08:00:00 18,3 14,2 0 0 7 4 N 1017,2 19 0,0
16.07.2018 07:00:00 15,6 12,5 2 1 7 4 NE 1017,3 16 0,0
16.07.2018 06:00:00 13,3 11,9 2 1 6 3 NNE 1017,3 13 0,0
16.07.2018 05:00:00 12,7 11,4 2 1 5 3 NE 1017,4 13 0,0
16.07.2018 04:00:00 13,1 11,7 3 1 5 3 NE 1017,4 13 0,0
16.07.2018 03:00:00 13,6 12,2 2 1 6 3 NNE 1017,3 11 0,0
16.07.2018 02:00:00 14,3 12,7 3 2 5 3 NE 1017,2 12 0,0
16.07.2018 01:00:00 15,4 13,4 2 1 4 2 ENE 1017,4 12 0,0
16.07.2018 00:00:00 16,4 13,7 0 0 4 2 N 1017,2 12 0,0
15.07.2018 23:00:00 16,7 14,2 2 1 9 5 NNW 1017,1 12 0,0
15.07.2018 22:00:00 17,3 14,2 6 3 14 7 NW 1016,9 12 0,0
15.07.2018 21:00:00 18,4 14,5 10 6 18 10 WNW 1016,6 17 0,0
15.07.2018 20:00:00 19,5 14,3 11 6 19 10 WNW 1016,5 20 0,0
15.07.2018 19:00:00 20,8 14,9 9 5 19 10 WNW 1016,5 25 0,0
15.07.2018 18:00:00 21,6 14,5 11 6 20 11 W 1016,8 26 0,0
15.07.2018 17:00:00 21,5 14,6 10 6 19 11 W 1016,7 23 0,0
15.07.2018 16:00:00 19,9 14,9 12 7 22 12 WSW 1017,0 25 0,0
15.07.2018 15:00:00 20,1 14,2 10 6 19 11 W 1017,1 22 0,0
15.07.2018 14:00:00 20,4 14,7 10 5 19 10 W 1017,0 20 0,0
15.07.2018 13:00:00 19,4 13,6 12 7 23 12 W 1017,0 23 0,0
15.07.2018 12:00:00 18,9 13,1 11 6 20 11 W 1017,0 21 0,0
15.07.2018 11:00:00 18,1 13,2 10 5 18 10 W 1016,9 23 0,0
15.07.2018 10:00:00 18,1 13,4 11 6 23 12 W 1016,6 33 0,0
15.07.2018 09:00:00 17,5 13,4 11 6 22 12 W 1016,2 25 0,0
15.07.2018 08:00:00 17,8 14,1 11 6 23 12 WSW 1015,7 24 0,0
15.07.2018 07:00:00 17,6 13,9 10 6 18 10 WSW 1015,4 25 0,0
15.07.2018 06:00:00 17,5 13,4 10 5 16 9 WSW 1015,1 25 0,0
15.07.2018 05:00:00 17,2 13,3 7 4 18 10 SW 1015,1 29 0,0
15.07.2018 04:00:00 17,0 12,9 10 5 18 10 SW 1015,1 33 0,0
15.07.2018 03:00:00 17,2 12,9 9 5 24 13 SSW 1015,2 41 0,0
15.07.2018 02:00:00 17,1 12,6 10 5 22 12 SW 1015,3 39 0,0
15.07.2018 01:00:00 16,8 12,3 9 5 21 11 SW 1015,3 34 0,0
15.07.2018 00:00:00 16,7 12,4 6 4 14 8 SSW 1015,5 29 0,0
14.07.2018 23:00:00 16,5 12,5 9 5 21 11 SW 1015,4 34 0,0
14.07.2018 22:00:00 17,8 12,9 12 6 20 11 WSW 1015,7 32 0,0
14.07.2018 21:00:00 18,1 12,5 8 4 18 10 S 1015,4 37 0,0
14.07.2018 20:00:00 18,8 12,1 10 5 24 13 S 1015,4 35 0,0
14.07.2018 19:00:00 18,7 12,4 14 7 24 13 WSW 1015,9 39 0,0
14.07.2018 18:00:00 18,7 12,2 10 5 27 15 WSW 1015,9 30 0,0
14.07.2018 17:00:00 19,1 12,1 15 8 24 13 WSW 1016,2 38 0,0
14.07.2018 16:00:00 18,6 11,9 16 8 26 14 WSW 1016,4 39 0,0
14.07.2018 15:00:00 19,5 12,0 13 7 28 15 SW 1016,4 37 0,0
14.07.2018 14:00:00 19,7 12,0 13 7 30 16 SW 1016,8 30 0,0
14.07.2018 13:00:00 19,0 12,3 16 9 28 15 W 1016,8 32 0,0
14.07.2018 12:00:00 18,5 12,7 14 7 23 12 WSW 1016,9 30 0,0
14.07.2018 11:00:00 19,0 12,7 11 6 21 11 SW 1016,9 27 0,0
14.07.2018 10:00:00 18,1 12,3 8 5 20 11 SW 1016,7 31 0,0
14.07.2018 09:00:00 17,3 12,6 9 5 20 11 WSW 1016,7 29 0,0
14.07.2018 08:00:00 17,0 12,5 9 5 20 11 WSW 1016,5 26 0,0
14.07.2018 07:00:00 16,5 12,8 9 5 17 9 WSW 1016,1 30 0,0
14.07.2018 06:00:00 16,3 13,2 9 5 16 9 W 1016,0 23 0,0
14.07.2018 05:00:00 16,2 13,3 8 4 16 9 W 1015,9 21 0,0
14.07.2018 04:00:00 16,2 13,5 7 4 15 8 W 1016,0 18 0,0
14.07.2018 03:00:00 16,2 13,5 7 4 18 10 W 1016,1 20 0,0
14.07.2018 02:00:00 16,6 13,9 8 4 16 9 W 1016,1 21 0,0
14.07.2018 01:00:00 17,2 13,9 10 5 19 10 W 1016,1 23 0,0
14.07.2018 00:00:00 18,3 13,6 11 6 16 9 W 1015,9 26 0,0
13.07.2018 23:00:00 18,2 14,1 4 2 15 8 NNW 1015,8 20 0,0
13.07.2018 22:00:00 19,2 14,5 9 5 18 10 WNW 1015,6 24 0,0
13.07.2018 21:00:00 20,4 14,7 11 6 20 11 WNW 1015,4 19 0,0
13.07.2018 20:00:00 21,7 13,3 14 7 26 14 W 1015,1 37 0,0
13.07.2018 19:00:00 22,9 13,9 17 9 27 14 WNW 1015,1 22 0,0
13.07.2018 18:00:00 24,1 16,9 16 8 26 14 WNW 1015,1 26 0,0
13.07.2018 17:00:00 25,5 15,5 17 9 27 15 W 1014,8 26 0,0
13.07.2018 16:00:00 26,4 13,2 17 9 25 13 WNW 1014,6 35 0,0
13.07.2018 15:00:00 27,5 12,7 16 9 26 14 WSW 1014,4 26 0,0
13.07.2018 14:00:00 27,1 16,1 15 8 27 15 WSW 1014,5 26 0,0
13.07.2018 13:00:00 26,6 17,4 16 8 27 15 WSW 1014,7 31 0,0
13.07.2018 12:00:00 25,3 18,2 19 10 28 15 WSW 1014,8 31 0,0
13.07.2018 11:00:00 27,1 13,4 10 6 16 8 WSW 1014,6 33 0,0
13.07.2018 10:00:00 26,0 12,5 3 1 11 6 NNW 1014,8 39 0,0
13.07.2018 09:00:00 24,2 12,8 3 2 8 4 NNW 1015,0 35 0,0
13.07.2018 08:00:00 21,5 13,9 2 1 6 4 NW 1015,1 38 0,0
13.07.2018 07:00:00 19,6 12,8 0 0 6 4 N 1014,9 39 0,0
13.07.2018 06:00:00 17,5 11,5 0 0 6 3 N 1015,0 43 0,0
13.07.2018 05:00:00 16,3 11,2 2 1 10 5 NE 1014,9 50 0,0
13.07.2018 04:00:00 17,0 11,3 3 2 9 5 N 1015,1 50 0,0
13.07.2018 03:00:00 18,1 11,2 0 0 6 3 N 1014,8 50 0,0
13.07.2018 02:00:00 18,8 11,1 0 0 5 3 N 1014,9 49 0,0
13.07.2018 01:00:00 19,9 11,4 3 2 6 3 NNW 1014,7 47 0,0
13.07.2018 00:00:00 21,3 10,2 0 0 5 3 N 1014,8 50 0,0
12.07.2018 23:00:00 22,3 9,8 2 1 8 4 NNW 1014,9 50 0,0
12.07.2018 22:00:00 23,7 9,3 4 2 15 8 NW 1015,0 50 0,0
12.07.2018 21:00:00 25,3 8,7 10 5 24 13 NW 1014,7 50 0,0
12.07.2018 20:00:00 26,5 9,4 16 8 27 15 NW 1014,5 47 0,0
12.07.2018 19:00:00 27,5 8,4 15 8 29 15 NW 1014,3 48 0,0
12.07.2018 18:00:00 28,1 8,4 17 9 29 15 WNW 1014,3 36 0,0
12.07.2018 17:00:00 28,6 7,2 16 9 30 16 NW 1014,2 33 0,0
12.07.2018 16:00:00 28,8 9,0 17 9 27 15 WNW 1014,3 41 0,0
12.07.2018 15:00:00 27,4 9,2 16 8 26 14 W 1014,4 26 0,0
12.07.2018 14:00:00 27,4 10,6 16 8 24 13 W 1014,6 21 0,0
12.07.2018 13:00:00 26,6 11,5 13 7 24 13 W 1014,9 43 0,0
12.07.2018 12:00:00 26,8 11,7 14 7 23 12 W 1015,1 19 0,0
12.07.2018 11:00:00 27,6 10,3 9 5 16 9 NW 1015,1 28 0,0
12.07.2018 10:00:00 26,6 10,7 4 2 13 7 N 1015,4 23 0,0
12.07.2018 09:00:00 25,1 12,0 0 0 6 4 N 1015,5 30 0,0
12.07.2018 08:00:00 22,2 13,5 0 0 6 4 N 1015,6 29 0,0
12.07.2018 07:00:00 19,5 13,7 3 1 7 4 NE 1015,8 40 0,0
12.07.2018 06:00:00 17,2 13,1 3 1 7 4 NE 1015,9 45 0,0
12.07.2018 05:00:00 15,9 12,8 0 0 7 4 N 1016,0 47 0,0
12.07.2018 04:00:00 16,6 12,7 3 2 10 5 NNE 1016,1 50 0,0
12.07.2018 03:00:00 17,2 12,5 5 3 9 5 NNE 1016,0 49 0,0
12.07.2018 02:00:00 18,0 11,8 4 2 8 5 NNE 1016,2 38 0,0
12.07.2018 01:00:00 18,9 11,9 4 2 8 4 NE 1016,5 45 0,0
12.07.2018 00:00:00 21,4 13,1 3 2 5 3 NE 1016,4 39 0,0
11.07.2018 23:00:00 22,4 13,2 0 0 8 5 N 1016,4 48 0,0
11.07.2018 22:00:00 24,3 13,5 4 2 12 6 WNW 1016,3 50 0,0
11.07.2018 21:00:00 26,4 12,1 6 3 14 8 WNW 1016,0 50 0,0
11.07.2018 20:00:00 26,7 12,0 7 4 17 9 NW 1015,9 50 0,0
11.07.2018 19:00:00 26,5 12,5 8 5 15 8 WNW 1015,9 36 0,0
11.07.2018 18:00:00 26,8 13,2 12 6 18 10 W 1016,2 39 0,0
11.07.2018 17:00:00 25,8 12,3 9 5 19 11 W 1016,7 47 0,0
11.07.2018 16:00:00 25,3 12,5 12 6 24 13 W 1017,0 36 0,0
11.07.2018 15:00:00 25,4 12,3 14 8 23 13 W 1017,3 32 0,0
11.07.2018 14:00:00 25,0 11,9 14 8 22 12 WNW 1017,3 37 0,0
11.07.2018 13:00:00 25,8 11,9 17 9 24 13 WSW 1017,6 29 0,0

tt = Température de l'air
td = dewpoint
ff = Vitesse du vent
fx = gusts
dd = Direction du vent
ppp = reduced air pressure
vv = visibility
rr = Quantités de précipitations

stations d'obs. à proximité